Terminal Aerodrome Forecast
Issued by NWS

Home | Current Version | Previous Version | Text Only | Print | Product List | Glossary On
Versions: 1 2 3 4 5 6 7 8 9 10 11 12 13 14 15 16 17 18 19 20 21 22 23 24
000
FTUS41 KGYX 300532
TAFPSM
TAF
KPSM 300532Z 3006/3106 05006KT 1 1/2SM -DZ BR OVC003
     FM300900 VRB03KT 1 1/2SM -RA BR OVC004
     FM301600 22008KT 6SM HZ BKN020 OVC035
     FM301900 21007KT P6SM SCT035 BKN100
     FM310100 22006KT 1/2SM FG BKN003=

USA.gov is the U.S. government's official web portal to all federal, state and local government web resources and services.